Tracking 20721 objects as of 1-Jun-2020
HD Live streaming from Space Station
objects crossing your sky now

COSMOS 2058 DEB

Track COSMOS 2058 DEB now!
10-day predictions


NORAD ID: 43343
Int'l Code: 1990-010C
Perigee: 537.6 km
Apogee: 540.0 km
Inclination: 82.5 °
Period: 95.3 minutes
Semi major axis: 6909 km
RCS: Unknown
Launch date: January 30, 1990
Source: Commonwealth of Independent States (former USSR) (CIS)
Launch site: PLESETSK MISSILE AND SPACE COMPLEX (PKMTR)

Note: This is SATELLITE DEBRIS
aabbcc
Your satellite tracking list
Your tracking list is empty




NASA's NSSDC Master Catalog

Two Line Element Set (TLE):
1 43343U 90010C   20150.77221161  .00002913  00000-0  17047-3 0  9999
2 43343  82.4656 275.9022 0001752 193.7264 166.3918 15.11489286184815
Source of the keplerian elements: AFSPC